| time (UTC) | temp F | wind direction | speed knots | gust knots | rain 1hr in | rain 24hr in | rain mn in | humidity % | barometer mb |
| 20260502183052 | 55 | 103 | 0.9 | 7.0 | 0.01 | 0.03 | 0.03 | 89 | 1012.9 |
| 20260502182521 | 55 | 0 | 0.9 | 8.7 | 0.01 | 0.03 | 0.03 | 90 | 1013.0 |
| 20260502182023 | 55 | 0 | 0.0 | 8.7 | 0.01 | 0.03 | 0.03 | 91 | 1013.1 |
| 20260502181543 | 55 | 0 | 0.0 | 4.3 | 0.01 | 0.03 | 0.03 | 91 | 1013.2 |
| 20260502181020 | 55 | 0 | 0.0 | 4.3 | 0.01 | 0.03 | 0.03 | 92 | 1013.2 |
| 20260502180520 | 55 | 92 | 0.0 | 5.2 | 0.01 | 0.03 | 0.03 | 92 | 1013.1 |
| 20260502170519 | 54 | 0 | 0.9 | 7.0 | 0.00 | 0.02 | 0.02 | 94 | 1013.4 |
| 20260502164021 | 55 | 0 | 0.9 | 3.5 | 0.00 | 0.03 | 0.02 | 94 | 1013.0 |
| 20260502163522 | 55 | 0 | 0.9 | 3.5 | 0.00 | 0.03 | 0.02 | 94 | 1013.3 |
| 20260502163042 | 56 | 107 | 0.0 | 6.1 | 0.00 | 0.03 | 0.02 | 95 | 1013.1 |
| 20260502162520 | 56 | 0 | 0.0 | 7.8 | 0.00 | 0.03 | 0.02 | 94 | 1013.0 |
| 20260502162022 | 57 | 0 | 0.9 | 7.8 | 0.00 | 0.03 | 0.02 | 94 | 1013.0 |
| 20260502161541 | 57 | 109 | 0.0 | 6.1 | 0.00 | 0.03 | 0.02 | 95 | 1013.0 |
| 20260502161021 | 57 | 32 | 0.0 | 4.3 | 0.00 | 0.03 | 0.02 | 95 | 1013.0 |
| 20260502160521 | 57 | 0 | 0.0 | 4.3 | 0.00 | 0.03 | 0.02 | 95 | 1013.0 |
| 20260502152020 | 59 | 0 | 0.0 | 2.6 | 0.00 | 0.03 | 0.02 | 95 | 1012.8 |
| 20260502151543 | 59 | 0 | 0.0 | 4.3 | 0.00 | 0.03 | 0.02 | 95 | 1012.8 |
| 20260502151020 | 59 | 5 | 0.0 | 4.3 | 0.00 | 0.03 | 0.02 | 96 | 1012.5 |
| 20260502150522 | 59 | 0 | 0.9 | 4.3 | 0.00 | 0.03 | 0.02 | 95 | 1012.5 |
| 20260502130521 | 57 | 0 | 0.0 | 0.0 | 0.01 | 0.04 | 0.02 | 94 | 1013.0 |
| 20260502123519 | 57 | 0 | 0.0 | 0.0 | 0.00 | 0.03 | 0.01 | 94 | 1013.2 |
| 20260502123041 | 57 | 0 | 0.0 | 0.0 | 0.00 | 0.03 | 0.01 | 94 | 1013.1 |
| 20260502122522 | 57 | 0 | 0.0 | 0.0 | 0.00 | 0.03 | 0.01 | 94 | 1012.8 |
| 20260502122055 | 57 | 0 | 0.0 | 0.0 | 0.00 | 0.03 | 0.01 | 94 | 1012.6 |
| 20260502121536 | 57 | 0 | 0.0 | 0.0 | 0.00 | 0.03 | 0.01 | 94 | 1012.3 |
| 20260502121021 | 57 | 0 | 0.0 | 0.0 | 0.00 | 0.03 | 0.01 | 94 | 1012.3 |
| 20260502120519 | 57 | 0 | 0.0 | 0.0 | 0.00 | 0.03 | 0.01 | 93 | 1012.2 |
| 20260502115521 | 57 | 0 | 0.0 | 0.0 | 0.00 | 0.03 | 0.01 | 93 | 1012.3 |
| 20260502115022 | 57 | 0 | 0.0 | 0.0 | 0.00 | 0.03 | 0.01 | 93 | 1012.0 |
| 20260502114532 | 57 | 0 | 0.0 | 0.0 | 0.00 | 0.03 | 0.01 | 93 | 1012.1 |
| 20260502114020 | 57 | 0 | 0.0 | 0.0 | 0.00 | 0.03 | 0.01 | 93 | 1012.0 |
| 20260502113520 | 57 | 0 | 0.0 | 0.0 | 0.00 | 0.03 | 0.01 | 93 | 1012.0 |
| 20260502113041 | 57 | 0 | 0.0 | 0.0 | 0.00 | 0.03 | 0.01 | 93 | 1011.9 |
| 20260502112523 | 57 | 0 | 0.0 | 0.0 | 0.00 | 0.03 | 0.01 | 93 | 1011.8 |
| 20260502112025 | 57 | 0 | 0.0 | 0.0 | 0.00 | 0.03 | 0.01 | 93 | 1011.6 |
| 20260502111537 | 57 | 0 | 0.0 | 0.0 | 0.00 | 0.03 | 0.01 | 93 | 1011.3 |
| 20260502111022 | 57 | 0 | 0.0 | 0.0 | 0.00 | 0.03 | 0.01 | 93 | 1011.2 |
| 20260502110519 | 57 | 0 | 0.0 | 0.0 | 0.00 | 0.03 | 0.01 | 93 | 1011.0 |
| 20260502110038 | 57 | 0 | 0.0 | 0.0 | 0.00 | 0.03 | 0.01 | 93 | 1010.9 |
| 20260502105522 | 57 | 0 | 0.0 | 0.0 | 0.00 | 0.04 | 0.01 | 93 | 1010.8 |
| 20260502105021 | 57 | 0 | 0.0 | 0.0 | 0.00 | 0.04 | 0.01 | 92 | 1011.1 |
| 20260502104543 | 57 | 0 | 0.0 | 0.0 | 0.00 | 0.04 | 0.01 | 93 | 1011.3 |
| 20260502104019 | 57 | 0 | 0.0 | 0.9 | 0.00 | 0.04 | 0.01 | 93 | 1011.4 |
| 20260502103520 | 57 | 0 | 0.0 | 0.9 | 0.00 | 0.04 | 0.01 | 92 | 1011.4 |
| 20260502103039 | 58 | 0 | 0.0 | 0.0 | 0.00 | 0.04 | 0.01 | 92 | 1011.4 |
| 20260502102520 | 58 | 0 | 0.0 | 0.0 | 0.00 | 0.04 | 0.01 | 92 | 1011.5 |
| 20260502102023 | 58 | 0 | 0.0 | 0.0 | 0.00 | 0.04 | 0.01 | 92 | 1011.7 |
| 20260502101608 | 58 | 0 | 0.0 | 0.0 | 0.00 | 0.04 | 0.01 | 92 | 1011.9 |
| 20260502101022 | 58 | 0 | 0.0 | 0.0 | 0.00 | 0.04 | 0.01 | 92 | 1011.9 |
| 20260502100520 | 58 | 0 | 0.0 | 0.0 | 0.00 | 0.04 | 0.01 | 92 | 1012.0 |
| 20260502091534 | 58 | 0 | 0.0 | 0.0 | 0.01 | 0.04 | 0.01 | 90 | 1012.5 |
| 20260502091021 | 58 | 0 | 0.0 | 0.0 | 0.01 | 0.04 | 0.01 | 90 | 1012.7 |
| 20260502090520 | 58 | 0 | 0.0 | 0.0 | 0.01 | 0.04 | 0.01 | 90 | 1012.7 |
| 20260502071535 | 59 | 0 | 0.0 | 0.0 | 0.00 | 0.04 | 0.00 | 87 | 1012.4 |
| 20260502071023 | 59 | 0 | 0.0 | 0.0 | 0.00 | 0.04 | 0.00 | 87 | 1012.3 |
| 20260502070522 | 59 | 0 | 0.0 | 0.0 | 0.00 | 0.04 | 0.00 | 87 | 1012.2 |
| 20260502070054 | 60 | 0 | 0.0 | 0.0 | 0.00 | 0.04 | 0.00 | 87 | 1012.2 |
| 20260502065521 | 60 | 0 | 0.0 | 0.0 | 0.00 | 0.05 | 0.00 | 87 | 1012.2 |
| 20260502065021 | 60 | 0 | 0.0 | 0.0 | 0.00 | 0.05 | 0.00 | 87 | 1012.2 |
| 20260502064539 | 60 | 0 | 0.0 | 0.0 | 0.00 | 0.05 | 0.00 | 87 | 1012.1 |
| 20260502064021 | 60 | 0 | 0.0 | 0.0 | 0.00 | 0.05 | 0.00 | 87 | 1012.1 |
| 20260502063522 | 60 | 0 | 0.0 | 0.0 | 0.00 | 0.05 | 0.00 | 87 | 1012.0 |
| 20260502063038 | 60 | 0 | 0.0 | 0.0 | 0.00 | 0.05 | 0.00 | 87 | 1012.1 |
| 20260502062522 | 60 | 0 | 0.0 | 0.0 | 0.00 | 0.05 | 0.00 | 87 | 1012.1 |
| 20260502062023 | 60 | 0 | 0.0 | 0.0 | 0.00 | 0.05 | 0.00 | 87 | 1012.1 |
| 20260502061536 | 60 | 0 | 0.0 | 0.0 | 0.00 | 0.05 | 0.00 | 87 | 1012.3 |
| 20260502061018 | 60 | 0 | 0.0 | 0.0 | 0.00 | 0.05 | 0.00 | 87 | 1012.3 |
| 20260502060519 | 60 | 0 | 0.0 | 0.0 | 0.00 | 0.05 | 0.00 | 87 | 1012.5 |
| 20260502060036 | 59 | 0 | 0.0 | 0.0 | 0.00 | 0.05 | 0.00 | 87 | 1012.7 |
| 20260502055521 | 59 | 0 | 0.0 | 0.0 | 0.00 | 0.05 | 0.00 | 86 | 1012.8 |
| 20260502055019 | 59 | 0 | 0.0 | 0.0 | 0.00 | 0.05 | 0.00 | 86 | 1012.8 |
| 20260502054539 | 59 | 0 | 0.0 | 0.0 | 0.00 | 0.05 | 0.00 | 86 | 1012.8 |
| 20260502054021 | 59 | 0 | 0.0 | 0.0 | 0.00 | 0.05 | 0.00 | 85 | 1012.9 |
| 20260502053518 | 59 | 0 | 0.0 | 0.0 | 0.00 | 0.05 | 0.00 | 85 | 1012.9 |
| 20260502053032 | 59 | 0 | 0.0 | 0.0 | 0.00 | 0.05 | 0.00 | 85 | 1013.0 |
| 20260502052518 | 59 | 0 | 0.0 | 0.0 | 0.00 | 0.05 | 0.00 | 85 | 1013.0 |
| 20260502052021 | 59 | 0 | 0.0 | 0.0 | 0.00 | 0.05 | 0.00 | 84 | 1012.8 |
| 20260502051553 | 59 | 0 | 0.0 | 0.0 | 0.00 | 0.05 | 0.00 | 84 | 1012.8 |
| 20260502051019 | 59 | 0 | 0.0 | 0.0 | 0.00 | 0.05 | 0.00 | 84 | 1012.8 |
| 20260502050519 | 59 | 0 | 0.0 | 0.0 | 0.00 | 0.05 | 0.00 | 84 | 1012.8 |
| 20260502050036 | 59 | 0 | 0.0 | 0.0 | 0.00 | 0.05 | 0.00 | 84 | 1012.7 |
| 20260502045520 | 59 | 0 | 0.0 | 0.0 | 0.00 | 0.05 | 0.00 | 84 | 1012.7 |
| 20260502045021 | 59 | 0 | 0.0 | 0.0 | 0.00 | 0.05 | 0.00 | 84 | 1012.8 |
| 20260502044536 | 59 | 0 | 0.0 | 0.0 | 0.00 | 0.05 | 0.00 | 84 | 1012.7 |
| 20260502044020 | 59 | 0 | 0.0 | 0.0 | 0.00 | 0.05 | 0.00 | 83 | 1012.8 |
| 20260502043519 | 59 | 0 | 0.0 | 0.0 | 0.00 | 0.05 | 0.00 | 83 | 1012.8 |
| 20260502043039 | 59 | 0 | 0.0 | 0.0 | 0.00 | 0.05 | 0.00 | 83 | 1012.8 |
| 20260502042519 | 59 | 0 | 0.0 | 0.0 | 0.00 | 0.05 | 0.00 | 83 | 1013.0 |
| 20260502042022 | 59 | 0 | 0.0 | 0.0 | 0.00 | 0.05 | 0.00 | 83 | 1013.1 |
| 20260502041536 | 59 | 0 | 0.0 | 0.0 | 0.00 | 0.05 | 0.00 | 83 | 1013.2 |
| 20260502041020 | 60 | 0 | 0.0 | 0.0 | 0.00 | 0.05 | 0.00 | 83 | 1013.2 |
| 20260502040522 | 60 | 0 | 0.0 | 0.0 | 0.00 | 0.05 | 0.00 | 83 | 1013.4 |
| 20260502040051 | 60 | 0 | 0.0 | 0.0 | 0.00 | 0.05 | 0.00 | 82 | 1013.3 |
| 20260502035521 | 60 | 0 | 0.0 | 0.0 | 0.00 | 0.06 | 0.05 | 82 | 1013.2 |
| 20260502035019 | 60 | 0 | 0.0 | 0.0 | 0.00 | 0.06 | 0.05 | 82 | 1013.3 |
| 20260502034536 | 60 | 0 | 0.0 | 0.0 | 0.00 | 0.06 | 0.05 | 82 | 1013.3 |
| 20260502034021 | 60 | 0 | 0.0 | 0.0 | 0.00 | 0.06 | 0.05 | 83 | 1013.2 |
| 20260502033521 | 60 | 0 | 0.0 | 0.0 | 0.00 | 0.06 | 0.05 | 83 | 1013.2 |
| 20260502033036 | 60 | 0 | 0.0 | 0.0 | 0.00 | 0.06 | 0.05 | 83 | 1013.2 |
| 20260502032520 | 60 | 0 | 0.0 | 0.0 | 0.00 | 0.06 | 0.05 | 83 | 1013.2 |
| 20260502032019 | 60 | 0 | 0.0 | 0.0 | 0.00 | 0.06 | 0.05 | 83 | 1013.3 |
| 20260502031532 | 60 | 0 | 0.0 | 0.0 | 0.00 | 0.06 | 0.05 | 82 | 1013.3 |
| 20260502031020 | 60 | 0 | 0.0 | 0.0 | 0.00 | 0.06 | 0.05 | 82 | 1013.4 |
| 20260502030520 | 60 | 0 | 0.0 | 0.0 | 0.00 | 0.06 | 0.05 | 82 | 1013.4 |
| 20260502030107 | 60 | 0 | 0.0 | 0.0 | 0.00 | 0.06 | 0.05 | 82 | 1013.4 |
| 20260502025519 | 60 | 0 | 0.0 | 0.0 | 0.00 | 0.06 | 0.05 | 81 | 1013.4 |
| 20260502025019 | 60 | 0 | 0.0 | 0.0 | 0.00 | 0.06 | 0.05 | 81 | 1013.3 |
| 20260502024540 | 60 | 0 | 0.0 | 0.0 | 0.00 | 0.06 | 0.05 | 81 | 1013.2 |
| 20260502024022 | 60 | 0 | 0.0 | 0.0 | 0.00 | 0.06 | 0.05 | 80 | 1013.3 |
| 20260502023521 | 60 | 0 | 0.0 | 0.0 | 0.00 | 0.06 | 0.05 | 80 | 1013.3 |
| 20260502023044 | 61 | 0 | 0.0 | 0.0 | 0.00 | 0.06 | 0.05 | 80 | 1013.2 |
| 20260502022521 | 61 | 0 | 0.0 | 0.0 | 0.00 | 0.06 | 0.05 | 80 | 1013.2 |
| 20260502022020 | 61 | 0 | 0.0 | 0.0 | 0.00 | 0.06 | 0.05 | 80 | 1013.3 |
| 20260502021536 | 61 | 0 | 0.0 | 0.0 | 0.00 | 0.06 | 0.05 | 79 | 1013.4 |
| 20260502021018 | 61 | 0 | 0.0 | 0.0 | 0.00 | 0.06 | 0.05 | 79 | 1013.3 |
| 20260502020521 | 61 | 0 | 0.0 | 0.0 | 0.00 | 0.06 | 0.05 | 79 | 1013.2 |
| 20260502020039 | 61 | 0 | 0.0 | 0.0 | 0.00 | 0.06 | 0.05 | 78 | 1013.1 |
| 20260502015521 | 61 | 0 | 0.0 | 0.0 | 0.00 | 0.06 | 0.05 | 78 | 1013.1 |
| 20260502015021 | 61 | 0 | 0.0 | 0.0 | 0.00 | 0.06 | 0.05 | 78 | 1013.3 |
| 20260502014535 | 62 | 0 | 0.0 | 0.0 | 0.00 | 0.06 | 0.05 | 78 | 1013.3 |
| 20260502014020 | 62 | 0 | 0.0 | 0.0 | 0.00 | 0.06 | 0.05 | 78 | 1013.3 |
| 20260502013520 | 62 | 0 | 0.0 | 0.0 | 0.00 | 0.06 | 0.05 | 77 | 1013.2 |
| 20260502013054 | 62 | 0 | 0.0 | 0.0 | 0.00 | 0.06 | 0.05 | 77 | 1013.2 |
| 20260502012522 | 62 | 0 | 0.0 | 0.0 | 0.00 | 0.06 | 0.05 | 77 | 1013.1 |
| 20260502012021 | 62 | 0 | 0.0 | 0.0 | 0.00 | 0.06 | 0.05 | 77 | 1013.0 |
| 20260502011536 | 62 | 0 | 0.0 | 0.0 | 0.00 | 0.06 | 0.05 | 76 | 1012.8 |
| 20260502011018 | 62 | 0 | 0.0 | 0.0 | 0.00 | 0.06 | 0.05 | 76 | 1012.8 |
| 20260502010518 | 63 | 0 | 0.0 | 0.0 | 0.00 | 0.06 | 0.05 | 76 | 1012.9 |
| 20260502010035 | 63 | 0 | 0.0 | 0.0 | 0.00 | 0.06 | 0.05 | 76 | 1012.9 |
| 20260502005518 | 63 | 0 | 0.0 | 0.0 | 0.00 | 0.06 | 0.05 | 75 | 1012.9 |
| 20260502005019 | 63 | 0 | 0.0 | 0.0 | 0.00 | 0.06 | 0.05 | 74 | 1012.8 |
| 20260502004532 | 63 | 0 | 0.0 | 0.0 | 0.00 | 0.06 | 0.05 | 74 | 1012.8 |
| 20260502004021 | 63 | 0 | 0.0 | 0.0 | 0.00 | 0.06 | 0.05 | 74 | 1012.8 |
| 20260502003521 | 64 | 0 | 0.0 | 0.0 | 0.00 | 0.06 | 0.05 | 74 | 1012.6 |
| 20260502003037 | 64 | 0 | 0.0 | 0.0 | 0.00 | 0.06 | 0.05 | 73 | 1012.7 |
| 20260502002521 | 64 | 0 | 0.0 | 0.0 | 0.00 | 0.06 | 0.05 | 73 | 1012.6 |
| 20260502002018 | 64 | 0 | 0.0 | 0.0 | 0.00 | 0.06 | 0.05 | 72 | 1012.6 |
| 20260502001552 | 64 | 0 | 0.0 | 0.0 | 0.00 | 0.06 | 0.05 | 72 | 1012.4 |
| 20260502001021 | 65 | 0 | 0.0 | 0.0 | 0.00 | 0.06 | 0.05 | 72 | 1012.2 |
| 20260502000519 | 65 | 0 | 0.0 | 0.0 | 0.00 | 0.06 | 0.05 | 72 | 1012.3 |
| 20260502000037 | 65 | 0 | 0.0 | 0.0 | 0.00 | 0.06 | 0.05 | 71 | 1012.4 |
| 20260501235520 | 65 | 0 | 0.0 | 1.7 | 0.00 | 0.06 | 0.05 | 71 | 1012.4 |
| 20260501235018 | 65 | 0 | 0.0 | 2.6 | 0.00 | 0.06 | 0.05 | 71 | 1012.2 |
| 20260501234536 | 66 | 0 | 0.0 | 2.6 | 0.00 | 0.06 | 0.05 | 70 | 1012.1 |
| 20260501234019 | 66 | 0 | 0.0 | 2.6 | 0.00 | 0.06 | 0.05 | 70 | 1012.1 |
| 20260501233519 | 66 | 0 | 0.0 | 2.6 | 0.00 | 0.06 | 0.05 | 70 | 1012.2 |
| 20260501233042 | 66 | 0 | 0.0 | 1.7 | 0.00 | 0.06 | 0.05 | 69 | 1012.1 |
| 20260501232521 | 67 | 0 | 0.0 | 1.7 | 0.00 | 0.06 | 0.05 | 69 | 1011.9 |
| 20260501232021 | 67 | 0 | 0.0 | 0.0 | 0.00 | 0.06 | 0.05 | 69 | 1012.2 |
| 20260501231538 | 67 | 0 | 0.0 | 0.0 | 0.00 | 0.06 | 0.05 | 68 | 1012.2 |
| 20260501231021 | 67 | 0 | 0.0 | 0.0 | 0.00 | 0.06 | 0.05 | 67 | 1012.2 |
| 20260501230519 | 68 | 0 | 0.0 | 1.7 | 0.00 | 0.06 | 0.05 | 67 | 1012.3 |
| 20260501230038 | 68 | 0 | 0.0 | 1.7 | 0.00 | 0.06 | 0.05 | 66 | 1012.3 |
| 20260501225519 | 68 | 0 | 0.0 | 0.0 | 0.00 | 0.07 | 0.05 | 65 | 1012.2 |
| 20260501225019 | 68 | 0 | 0.0 | 0.9 | 0.00 | 0.07 | 0.05 | 65 | 1012.3 |
| 20260501224535 | 68 | 0 | 0.0 | 1.7 | 0.00 | 0.07 | 0.05 | 64 | 1012.5 |
| 20260501224017 | 68 | 0 | 0.0 | 2.6 | 0.00 | 0.07 | 0.05 | 64 | 1012.3 |
| 20260501223519 | 69 | 0 | 0.0 | 2.6 | 0.00 | 0.07 | 0.05 | 63 | 1012.5 |
| 20260501223036 | 69 | 86 | 0.0 | 2.6 | 0.00 | 0.07 | 0.05 | 63 | 1012.6 |
| 20260501222519 | 69 | 0 | 0.0 | 0.9 | 0.00 | 0.07 | 0.05 | 63 | 1012.7 |
| 20260501222021 | 69 | 0 | 0.0 | 2.6 | 0.00 | 0.07 | 0.05 | 62 | 1012.6 |
| 20260501221540 | 69 | 0 | 0.0 | 2.6 | 0.00 | 0.07 | 0.05 | 62 | 1012.6 |
| 20260501221018 | 69 | 117 | 0.0 | 0.9 | 0.00 | 0.07 | 0.05 | 62 | 1012.5 |
| 20260501220519 | 69 | 0 | 0.0 | 0.9 | 0.00 | 0.07 | 0.05 | 62 | 1012.6 |
| 20260501220104 | 69 | 0 | 0.0 | 0.9 | 0.00 | 0.07 | 0.05 | 62 | 1012.6 |
| 20260501215518 | 69 | 0 | 0.0 | 0.9 | 0.00 | 0.07 | 0.05 | 63 | 1012.7 |
| 20260501215018 | 69 | 0 | 0.0 | 0.9 | 0.00 | 0.07 | 0.05 | 62 | 1012.7 |
| 20260501214540 | 69 | 0 | 0.0 | 0.9 | 0.00 | 0.07 | 0.05 | 63 | 1012.7 |
| 20260501214021 | 69 | 0 | 0.0 | 1.7 | 0.00 | 0.07 | 0.05 | 62 | 1012.6 |
| 20260501213521 | 69 | 0 | 0.0 | 1.7 | 0.00 | 0.07 | 0.05 | 62 | 1012.6 |
| 20260501213036 | 69 | 0 | 0.0 | 1.7 | 0.00 | 0.07 | 0.05 | 62 | 1012.6 |
| 20260501212519 | 69 | 0 | 0.0 | 1.7 | 0.00 | 0.07 | 0.05 | 61 | 1012.7 |
| 20260501212019 | 69 | 0 | 0.0 | 1.7 | 0.00 | 0.07 | 0.05 | 61 | 1012.8 |
| 20260501211536 | 69 | 0 | 0.0 | 2.6 | 0.00 | 0.07 | 0.05 | 61 | 1012.8 |
| 20260501211024 | 69 | 0 | 0.0 | 2.6 | 0.00 | 0.07 | 0.05 | 61 | 1012.7 |
| 20260501210518 | 69 | 0 | 0.0 | 2.6 | 0.00 | 0.07 | 0.05 | 60 | 1012.7 |
| 20260501210047 | 69 | 0 | 0.0 | 2.6 | 0.00 | 0.07 | 0.05 | 60 | 1012.6 |
| 20260501205518 | 69 | 0 | 0.9 | 2.6 | 0.00 | 0.08 | 0.05 | 60 | 1012.7 |
| 20260501205022 | 69 | 0 | 0.0 | 3.5 | 0.00 | 0.08 | 0.05 | 61 | 1012.9 |
| 20260501204541 | 69 | 0 | 0.0 | 3.5 | 0.00 | 0.08 | 0.05 | 60 | 1012.7 |
| 20260501204021 | 69 | 108 | 0.0 | 3.5 | 0.00 | 0.08 | 0.05 | 60 | 1012.8 |
| 20260501203519 | 69 | 0 | 0.0 | 2.6 | 0.00 | 0.08 | 0.05 | 59 | 1012.9 |
| 20260501203040 | 69 | 82 | 0.0 | 1.7 | 0.00 | 0.08 | 0.05 | 60 | 1013.0 |
| 20260501202519 | 69 | 285 | 0.0 | 2.6 | 0.00 | 0.08 | 0.05 | 60 | 1013.0 |
| 20260501202021 | 69 | 0 | 0.0 | 2.6 | 0.00 | 0.08 | 0.05 | 59 | 1013.0 |
| 20260501201541 | 69 | 355 | 0.0 | 4.3 | 0.00 | 0.08 | 0.05 | 60 | 1013.1 |
| 20260501201021 | 68 | 234 | 0.9 | 6.1 | 0.00 | 0.08 | 0.05 | 60 | 1013.2 |
| 20260501200523 | 68 | 0 | 0.0 | 6.1 | 0.00 | 0.08 | 0.05 | 61 | 1013.3 |
| 20260501200036 | 68 | 102 | 0.0 | 1.7 | 0.00 | 0.08 | 0.05 | 61 | 1013.3 |
| 20260501195523 | 67 | 0 | 0.0 | 2.6 | 0.00 | 0.08 | 0.05 | 61 | 1013.3 |
| 20260501195023 | 67 | 0 | 0.0 | 2.6 | 0.00 | 0.08 | 0.05 | 62 | 1013.4 |
| 20260501194536 | 67 | 0 | 0.0 | 2.6 | 0.00 | 0.08 | 0.05 | 61 | 1013.4 |
| 20260501194023 | 67 | 0 | 0.0 | 2.6 | 0.00 | 0.08 | 0.05 | 62 | 1013.4 |
| 20260501193522 | 67 | 0 | 0.0 | 2.6 | 0.00 | 0.08 | 0.05 | 61 | 1013.5 |
| 20260501193046 | 67 | 90 | 0.0 | 1.7 | 0.00 | 0.08 | 0.05 | 60 | 1013.6 |
| 20260501192519 | 66 | 0 | 0.0 | 2.6 | 0.00 | 0.08 | 0.05 | 61 | 1013.7 |
| 20260501192021 | 66 | 0 | 0.0 | 2.6 | 0.00 | 0.08 | 0.05 | 62 | 1013.8 |
| 20260501191538 | 66 | 103 | 0.0 | 2.6 | 0.00 | 0.08 | 0.05 | 62 | 1014.0 |
| 20260501191021 | 65 | 0 | 0.0 | 2.6 | 0.00 | 0.08 | 0.05 | 62 | 1014.2 |
| 20260501190525 | 65 | 113 | 0.0 | 2.6 | 0.00 | 0.08 | 0.05 | 63 | 1014.3 |
| 20260501190039 | 65 | 0 | 0.0 | 3.5 | 0.00 | 0.08 | 0.05 | 61 | 1014.4 |
| 20260501185519 | 65 | 0 | 0.9 | 3.5 | 0.00 | 0.09 | 0.05 | 62 | 1014.5 |
| 20260501185019 | 65 | 0 | 0.0 | 2.6 | 0.00 | 0.09 | 0.05 | 62 | 1014.3 |
| 20260501184536 | 65 | 0 | 0.9 | 2.6 | 0.00 | 0.09 | 0.05 | 60 | 1014.5 |
| 20260501184021 | 64 | 0 | 0.0 | 1.7 | 0.00 | 0.09 | 0.05 | 61 | 1014.5 |
| 20260501183520 | 64 | 0 | 0.0 | 3.5 | 0.00 | 0.09 | 0.05 | 62 | 1014.6 |